Time,TemperatureF,DewpointF,PressureIn,WindDirection,WindDirectionDegrees,WindSpeedMPH,WindSpeedGustMPH,Humidity,HourlyPrecipIn,Conditions,Clouds,dailyrainin,SoftwareType,DateUTC
2013-02-10 00:00:00,4.7,-5.3,30.19,SSW,203,0.2,0.2,63,0.00,,,0.00,WUHU216HW,2013-02-10 05:00:00,
2013-02-10 00:05:00,4.7,-5.3,30.19,SSW,203,0.2,0.2,63,0.00,,,0.00,WUHU216HW,2013-02-10 05:05:00,
2013-02-10 00:30:00,4.1,-5.5,30.19,SW,225,1.3,1.3,64,0.00,,,0.00,WUHU216HW,2013-02-10 05:30:00,
2013-02-10 00:35:00,4.1,-5.5,30.19,SW,225,1.3,1.3,64,0.00,,,0.00,WUHU216HW,2013-02-10 05:35:00,
2013-02-10 00:59:00,3.8,-5.7,30.19,SW,225,0.4,0.4,64,0.00,,,0.00,WUHU216HW,2013-02-10 05:59:00,
2013-02-10 01:00:00,3.8,-5.7,30.19,SW,225,0.4,0.4,64,0.00,,,0.00,WUHU216HW,2013-02-10 06:00:00,
2013-02-10 01:04:00,3.8,-5.7,30.19,SW,225,0.4,0.4,64,0.00,,,0.00,WUHU216HW,2013-02-10 06:04:00,
2013-02-10 01:05:00,3.8,-5.7,30.19,SW,225,0.4,0.4,64,0.00,,,0.00,WUHU216HW,2013-02-10 06:05:00,
2013-02-10 01:30:00,3.2,-6.3,30.20,SSW,203,0.0,0.0,64,0.00,,,0.00,WUHU216HW,2013-02-10 06:30:00,
2013-02-10 01:35:00,3.2,-6.3,30.20,SSW,203,0.0,0.0,64,0.00,,,0.00,WUHU216HW,2013-02-10 06:35:00,
2013-02-10 01:59:00,2.3,-7.2,30.20,SSW,203,0.7,0.7,64,0.00,,,0.00,WUHU216HW,2013-02-10 06:59:00,
2013-02-10 02:00:00,2.3,-7.2,30.20,SSW,203,0.7,0.7,64,0.00,,,0.00,WUHU216HW,2013-02-10 07:00:00,
2013-02-10 02:05:00,2.3,-7.2,30.20,SSW,203,0.7,0.7,64,0.00,,,0.00,WUHU216HW,2013-02-10 07:05:00,
2013-02-10 02:30:00,3.6,-6.9,30.21,West,270,0.0,0.0,61,0.00,,,0.00,WUHU216HW,2013-02-10 07:30:00,
2013-02-10 02:35:00,3.6,-6.9,30.21,West,270,0.0,0.0,61,0.00,,,0.00,WUHU216HW,2013-02-10 07:35:00,
2013-02-10 02:59:00,3.8,-8.2,30.20,WSW,248,1.1,1.1,57,0.00,,,0.00,WUHU216HW,2013-02-10 07:59:00,
2013-02-10 03:00:00,3.8,-8.2,30.20,WSW,248,1.1,1.1,57,0.00,,,0.00,WUHU216HW,2013-02-10 08:00:00,
2013-02-10 03:04:00,3.8,-8.2,30.20,WSW,248,1.1,1.1,57,0.00,,,0.00,WUHU216HW,2013-02-10 08:04:00,
2013-02-10 03:05:00,3.8,-8.2,30.20,WSW,248,1.1,1.1,57,0.00,,,0.00,WUHU216HW,2013-02-10 08:05:00,
2013-02-10 03:30:00,3.6,-8.0,30.20,WSW,248,1.6,1.6,58,0.00,,,0.00,WUHU216HW,2013-02-10 08:30:00,
2013-02-10 03:35:00,3.6,-8.0,30.20,WSW,248,1.6,1.6,58,0.00,,,0.00,WUHU216HW,2013-02-10 08:35:00,
2013-02-10 03:36:00,3.6,-8.0,30.20,WSW,248,1.6,1.6,58,0.00,,,0.00,WUHU216HW,2013-02-10 08:36:00,
2013-02-10 03:59:00,3.2,-7.6,30.20,SSW,203,0.2,0.2,60,0.00,,,0.00,WUHU216HW,2013-02-10 08:59:00,
2013-02-10 04:00:00,3.2,-7.6,30.20,SSW,203,0.2,0.2,60,0.00,,,0.00,WUHU216HW,2013-02-10 09:00:00,
2013-02-10 04:04:00,3.2,-7.6,30.20,SSW,203,0.2,0.2,60,0.00,,,0.00,WUHU216HW,2013-02-10 09:04:00,
2013-02-10 04:05:00,3.2,-7.6,30.20,SSW,203,0.2,0.2,60,0.00,,,0.00,WUHU216HW,2013-02-10 09:05:00,
2013-02-10 04:30:00,3.2,-7.6,30.19,WSW,248,0.0,0.0,60,0.00,,,0.00,WUHU216HW,2013-02-10 09:30:00,
2013-02-10 04:35:00,3.2,-7.6,30.19,WSW,248,0.0,0.0,60,0.00,,,0.00,WUHU216HW,2013-02-10 09:35:00,
2013-02-10 04:59:00,3.6,-8.0,30.21,SSW,203,0.0,0.0,58,0.00,,,0.00,WUHU216HW,2013-02-10 09:59:00,
2013-02-10 05:00:00,3.6,-8.0,30.21,SSW,203,0.0,0.0,58,0.00,,,0.00,WUHU216HW,2013-02-10 10:00:00,
2013-02-10 05:05:00,3.6,-8.0,30.21,SSW,203,0.0,0.0,58,0.00,,,0.00,WUHU216HW,2013-02-10 10:05:00,
2013-02-10 05:30:00,4.7,-6.3,30.22,SSW,203,0.9,0.9,60,0.00,,,0.00,WUHU216HW,2013-02-10 10:30:00,
2013-02-10 05:35:00,4.7,-6.3,30.22,SSW,203,0.9,0.9,60,0.00,,,0.00,WUHU216HW,2013-02-10 10:35:00,
2013-02-10 05:59:00,5.4,-7.0,30.23,SSW,203,0.0,0.0,56,0.00,,,0.00,WUHU216HW,2013-02-10 10:59:00,
2013-02-10 06:00:00,5.4,-7.0,30.23,SSW,203,0.0,0.0,56,0.00,,,0.00,WUHU216HW,2013-02-10 11:00:00,
2013-02-10 06:05:00,5.4,-7.0,30.23,SSW,203,0.0,0.0,56,0.00,,,0.00,WUHU216HW,2013-02-10 11:05:00,
2013-02-10 06:30:00,5.2,-8.6,30.24,SSW,203,0.4,0.4,52,0.00,,,0.00,WUHU216HW,2013-02-10 11:30:00,
2013-02-10 06:35:00,5.2,-8.6,30.24,SSW,203,0.4,0.4,52,0.00,,,0.00,WUHU216HW,2013-02-10 11:35:00,
2013-02-10 06:59:00,5.8,-7.0,30.24,SSW,203,0.4,0.4,55,0.00,,,0.00,WUHU216HW,2013-02-10 11:59:00,
2013-02-10 07:00:00,5.8,-7.0,30.24,SSW,203,0.4,0.4,55,0.00,,,0.00,WUHU216HW,2013-02-10 12:00:00,
2013-02-10 07:05:00,5.8,-7.0,30.24,SSW,203,0.4,0.4,55,0.00,,,0.00,WUHU216HW,2013-02-10 12:05:00,
2013-02-10 07:30:00,6.1,-7.5,30.24,SSW,203,0.0,0.0,53,0.00,,,0.00,WUHU216HW,2013-02-10 12:30:00,
2013-02-10 07:35:00,6.1,-7.5,30.24,SSW,203,0.0,0.0,53,0.00,,,0.00,WUHU216HW,2013-02-10 12:35:00,
2013-02-10 07:59:00,6.7,-11.2,30.25,SSW,203,0.4,0.4,43,0.00,,,0.00,WUHU216HW,2013-02-10 12:59:00,
2013-02-10 08:00:00,6.7,-11.2,30.25,SSW,203,0.4,0.4,43,0.00,,,0.00,WUHU216HW,2013-02-10 13:00:00,
2013-02-10 08:05:00,6.7,-11.2,30.25,SSW,203,0.4,0.4,43,0.00,,,0.00,WUHU216HW,2013-02-10 13:05:00,
2013-02-10 08:30:00,6.8,-11.1,30.25,West,270,0.0,0.0,43,0.00,,,0.00,WUHU216HW,2013-02-10 13:30:00,
2013-02-10 08:35:00,6.8,-11.1,30.25,West,270,0.0,0.0,43,0.00,,,0.00,WUHU216HW,2013-02-10 13:35:00,
2013-02-10 09:00:00,7.9,-8.7,30.24,WSW,248,0.2,0.2,46,0.00,,,0.00,WUHU216HW,2013-02-10 14:00:00,
2013-02-10 09:05:00,7.9,-8.7,30.24,WSW,248,0.2,0.2,46,0.00,,,0.00,WUHU216HW,2013-02-10 14:05:00,
2013-02-10 09:30:00,9.0,-9.1,30.26,West,270,0.7,0.7,43,0.00,,,0.00,WUHU216HW,2013-02-10 14:30:00,
2013-02-10 09:35:00,9.0,-9.1,30.26,West,270,0.7,0.7,43,0.00,,,0.00,WUHU216HW,2013-02-10 14:35:00,
2013-02-10 10:00:00,12.6,-5.8,30.27,SSW,203,0.7,0.7,43,0.00,,,0.00,WUHU216HW,2013-02-10 15:00:00,
2013-02-10 10:05:00,12.6,-5.8,30.27,SSW,203,0.7,0.7,43,0.00,,,0.00,WUHU216HW,2013-02-10 15:05:00,
2013-02-10 10:30:00,16.9,-0.3,30.27,SSW,203,0.4,0.4,46,0.00,,,0.00,WUHU216HW,2013-02-10 15:30:00,
2013-02-10 10:35:00,16.9,-0.3,30.27,SSW,203,0.4,0.4,46,0.00,,,0.00,WUHU216HW,2013-02-10 15:35:00,
2013-02-10 10:59:00,20.0,7.1,30.25,WSW,248,0.4,0.4,57,0.00,,,0.00,WUHU216HW,2013-02-10 15:59:00,
2013-02-10 11:00:00,20.0,7.1,30.25,WSW,248,0.4,0.4,57,0.00,,,0.00,WUHU216HW,2013-02-10 16:00:00,
2013-02-10 11:04:00,20.0,7.1,30.25,WSW,248,0.4,0.4,57,0.00,,,0.00,WUHU216HW,2013-02-10 16:04:00,
2013-02-10 11:05:00,20.0,7.1,30.25,WSW,248,0.4,0.4,57,0.00,,,0.00,WUHU216HW,2013-02-10 16:05:00,
2013-02-10 11:30:00,19.3,7.9,30.24,West,270,0.4,0.4,61,0.00,,,0.00,WUHU216HW,2013-02-10 16:30:00,
2013-02-10 11:35:00,19.3,7.9,30.24,West,270,0.4,0.4,61,0.00,,,0.00,WUHU216HW,2013-02-10 16:35:00,
2013-02-10 11:59:00,23.0,11.2,30.22,North,0,4.9,4.9,60,0.00,,,0.00,WUHU216HW,2013-02-10 16:59:00,
2013-02-10 12:00:00,23.0,11.2,30.22,North,0,4.9,4.9,60,0.00,,,0.00,WUHU216HW,2013-02-10 17:00:00,
2013-02-10 12:04:00,23.0,11.2,30.22,North,0,4.9,4.9,60,0.00,,,0.00,WUHU216HW,2013-02-10 17:04:00,
2013-02-10 12:05:00,23.0,11.2,30.22,North,0,4.9,4.9,60,0.00,,,0.00,WUHU216HW,2013-02-10 17:05:00,
2013-02-10 12:29:00,23.2,11.7,30.18,NNW,338,4.3,4.3,61,0.01,,,0.00,WUHU216HW,2013-02-10 17:29:00,
2013-02-10 12:30:00,23.2,11.7,30.18,NNW,338,4.3,4.3,61,0.01,,,0.00,WUHU216HW,2013-02-10 17:30:00,
2013-02-10 12:34:00,23.2,11.7,30.18,NNW,338,4.3,4.3,61,0.01,,,0.00,WUHU216HW,2013-02-10 17:34:00,
2013-02-10 12:35:00,23.2,11.7,30.18,NNW,338,4.3,4.3,61,0.01,,,0.00,WUHU216HW,2013-02-10 17:35:00,
2013-02-10 12:59:00,24.1,11.8,30.16,North,0,4.9,4.9,59,0.01,,,0.01,WUHU216HW,2013-02-10 17:59:00,
2013-02-10 13:00:00,24.1,11.8,30.16,North,0,4.9,4.9,59,0.01,,,0.01,WUHU216HW,2013-02-10 18:00:00,
2013-02-10 13:05:00,24.1,11.8,30.16,North,0,4.9,4.9,59,0.01,,,0.01,WUHU216HW,2013-02-10 18:05:00,
2013-02-10 13:29:00,25.6,12.8,30.16,North,0,2.9,2.9,58,0.00,,,0.01,WUHU216HW,2013-02-10 18:29:00,
2013-02-10 13:30:00,25.6,12.8,30.16,North,0,2.9,2.9,58,0.00,,,0.01,WUHU216HW,2013-02-10 18:30:00,
2013-02-10 13:34:00,25.6,12.8,30.16,North,0,2.9,2.9,58,0.00,,,0.01,WUHU216HW,2013-02-10 18:34:00,
2013-02-10 13:35:00,25.6,12.8,30.16,North,0,2.9,2.9,58,0.00,,,0.01,WUHU216HW,2013-02-10 18:35:00,
2013-02-10 13:59:00,26.8,13.5,30.16,North,0,4.7,4.7,57,0.00,,,0.01,WUHU216HW,2013-02-10 18:59:00,
2013-02-10 14:00:00,26.8,13.5,30.16,North,0,4.7,4.7,57,0.00,,,0.01,WUHU216HW,2013-02-10 19:00:00,
2013-02-10 14:04:00,26.8,13.5,30.16,North,0,4.7,4.7,57,0.00,,,0.01,WUHU216HW,2013-02-10 19:04:00,
2013-02-10 14:05:00,26.8,13.5,30.16,North,0,4.7,4.7,57,0.00,,,0.01,WUHU216HW,2013-02-10 19:05:00,
2013-02-10 14:29:00,26.6,12.1,30.17,North,0,4.0,4.0,54,0.00,,,0.01,WUHU216HW,2013-02-10 19:29:00,
2013-02-10 14:30:00,26.6,12.1,30.17,North,0,4.0,4.0,54,0.00,,,0.01,WUHU216HW,2013-02-10 19:30:00,
2013-02-10 14:35:00,26.6,12.1,30.17,North,0,4.0,4.0,54,0.00,,,0.01,WUHU216HW,2013-02-10 19:35:00,
2013-02-10 14:59:00,26.6,10.9,30.15,North,0,6.0,6.0,51,0.00,,,0.01,WUHU216HW,2013-02-10 19:59:00,
2013-02-10 15:00:00,26.6,10.9,30.15,North,0,6.0,6.0,51,0.00,,,0.01,WUHU216HW,2013-02-10 20:00:00,
2013-02-10 15:05:00,26.6,10.9,30.15,North,0,6.0,6.0,51,0.00,,,0.01,WUHU216HW,2013-02-10 20:05:00,
2013-02-10 15:29:00,27.4,10.2,30.13,North,0,3.6,3.6,48,0.01,,,0.01,WUHU216HW,2013-02-10 20:29:00,
2013-02-10 15:30:00,27.4,10.2,30.13,North,0,3.6,3.6,48,0.01,,,0.01,WUHU216HW,2013-02-10 20:30:00,
2013-02-10 15:35:00,27.4,10.2,30.13,North,0,3.6,3.6,48,0.01,,,0.01,WUHU216HW,2013-02-10 20:35:00,
2013-02-10 15:59:00,27.7,11.5,30.12,NNW,338,0.4,0.4,50,0.01,,,0.02,WUHU216HW,2013-02-10 20:59:00,
2013-02-10 16:00:00,27.7,11.5,30.12,NNW,338,0.4,0.4,50,0.01,,,0.02,WUHU216HW,2013-02-10 21:00:00,
2013-02-10 16:04:00,27.7,11.5,30.12,NNW,338,0.4,0.4,50,0.01,,,0.02,WUHU216HW,2013-02-10 21:04:00,
2013-02-10 16:05:00,27.7,11.5,30.12,NNW,338,0.4,0.4,50,0.01,,,0.02,WUHU216HW,2013-02-10 21:05:00,
2013-02-10 16:29:00,28.1,11.3,30.12,SSW,203,2.2,2.2,49,0.00,,,0.02,WUHU216HW,2013-02-10 21:29:00,
2013-02-10 16:30:00,28.1,11.3,30.12,SSW,203,2.2,2.2,49,0.00,,,0.02,WUHU216HW,2013-02-10 21:30:00,
2013-02-10 16:35:00,28.1,11.3,30.12,SSW,203,2.2,2.2,49,0.00,,,0.02,WUHU216HW,2013-02-10 21:35:00,
2013-02-10 16:59:00,26.3,11.0,30.12,NW,315,0.4,0.4,52,0.00,,,0.02,WUHU216HW,2013-02-10 21:59:00,
2013-02-10 17:00:00,26.3,11.0,30.12,NW,315,0.4,0.4,52,0.00,,,0.02,WUHU216HW,2013-02-10 22:00:00,
2013-02-10 17:05:00,26.3,11.0,30.12,NW,315,0.4,0.4,52,0.00,,,0.02,WUHU216HW,2013-02-10 22:05:00,
2013-02-10 17:30:00,23.9,9.3,30.11,SSW,203,0.4,0.4,53,0.00,,,0.02,WUHU216HW,2013-02-10 22:30:00,
2013-02-10 17:35:00,23.9,9.3,30.11,SSW,203,0.4,0.4,53,0.00,,,0.02,WUHU216HW,2013-02-10 22:35:00,
2013-02-10 17:36:00,23.9,9.3,30.11,SSW,203,0.4,0.4,53,0.00,,,0.02,WUHU216HW,2013-02-10 22:36:00,
2013-02-10 17:59:00,22.0,8.2,30.11,SSW,203,0.2,0.2,55,0.00,,,0.02,WUHU216HW,2013-02-10 22:59:00,
2013-02-10 18:00:00,22.0,8.2,30.11,SSW,203,0.2,0.2,55,0.00,,,0.02,WUHU216HW,2013-02-10 23:00:00,
2013-02-10 18:04:00,22.0,8.2,30.11,SSW,203,0.2,0.2,55,0.00,,,0.02,WUHU216HW,2013-02-10 23:04:00,
2013-02-10 18:05:00,22.0,8.2,30.11,SSW,203,0.2,0.2,55,0.00,,,0.02,WUHU216HW,2013-02-10 23:05:00,
2013-02-10 18:29:00,20.5,8.0,30.11,North,0,0.2,0.2,58,0.00,,,0.02,WUHU216HW,2013-02-10 23:29:00,
2013-02-10 18:30:00,20.5,8.0,30.11,North,0,0.2,0.2,58,0.00,,,0.02,WUHU216HW,2013-02-10 23:30:00,
2013-02-10 18:35:00,20.5,8.0,30.11,North,0,0.2,0.2,58,0.00,,,0.02,WUHU216HW,2013-02-10 23:35:00,
2013-02-10 18:59:00,19.8,7.8,30.10,North,0,0.7,0.7,59,0.00,,,0.02,WUHU216HW,2013-02-10 23:59:00,
2013-02-10 19:00:00,19.8,7.8,30.10,North,0,0.7,0.7,59,0.00,,,0.02,WUHU216HW,2013-02-11 00:00:00,
2013-02-10 19:05:00,19.8,7.8,30.10,North,0,0.7,0.7,59,0.00,,,0.02,WUHU216HW,2013-02-11 00:05:00,
2013-02-10 19:29:00,20.7,8.2,30.08,NW,315,0.7,0.7,58,0.00,,,0.02,WUHU216HW,2013-02-11 00:29:00,
2013-02-10 19:30:00,20.7,8.2,30.08,NW,315,0.7,0.7,58,0.00,,,0.02,WUHU216HW,2013-02-11 00:30:00,
2013-02-10 19:35:00,20.7,8.2,30.08,NW,315,0.7,0.7,58,0.00,,,0.02,WUHU216HW,2013-02-11 00:35:00,
2013-02-10 19:59:00,21.1,7.3,30.09,SSW,203,3.1,3.1,55,0.00,,,0.02,WUHU216HW,2013-02-11 00:59:00,
2013-02-10 20:00:00,21.1,7.3,30.09,SSW,203,3.1,3.1,55,0.00,,,0.02,WUHU216HW,2013-02-11 01:00:00,
2013-02-10 20:05:00,21.1,7.3,30.09,SSW,203,3.1,3.1,55,0.00,,,0.02,WUHU216HW,2013-02-11 01:05:00,
2013-02-10 20:29:00,20.3,6.7,30.08,SSW,203,1.3,1.3,55,0.00,,,0.02,WUHU216HW,2013-02-11 01:29:00,
2013-02-10 20:30:00,20.3,6.7,30.08,SSW,203,1.3,1.3,55,0.00,,,0.02,WUHU216HW,2013-02-11 01:30:00,
2013-02-10 20:34:00,20.3,6.7,30.08,SSW,203,1.3,1.3,55,0.00,,,0.02,WUHU216HW,2013-02-11 01:34:00,
2013-02-10 20:35:00,20.3,6.7,30.08,SSW,203,1.3,1.3,55,0.00,,,0.02,WUHU216HW,2013-02-11 01:35:00,
2013-02-10 20:59:00,19.1,5.9,30.07,North,0,0.7,0.7,56,0.00,,,0.02,WUHU216HW,2013-02-11 01:59:00,
2013-02-10 21:00:00,19.1,5.9,30.07,North,0,0.7,0.7,56,0.00,,,0.02,WUHU216HW,2013-02-11 02:00:00,
2013-02-10 21:04:00,19.1,5.9,30.07,North,0,0.7,0.7,56,0.00,,,0.02,WUHU216HW,2013-02-11 02:04:00,
2013-02-10 21:05:00,19.1,5.9,30.07,North,0,0.7,0.7,56,0.00,,,0.02,WUHU216HW,2013-02-11 02:05:00,
2013-02-10 21:29:00,19.1,6.2,30.05,SSW,203,2.2,2.2,57,0.00,,,0.02,WUHU216HW,2013-02-11 02:29:00,
2013-02-10 21:30:00,19.1,6.2,30.05,SSW,203,2.2,2.2,57,0.00,,,0.02,WUHU216HW,2013-02-11 02:30:00,
2013-02-10 21:35:00,19.1,6.2,30.05,SSW,203,2.2,2.2,57,0.00,,,0.02,WUHU216HW,2013-02-11 02:35:00,
2013-02-10 21:59:00,19.8,6.1,30.05,North,0,2.5,2.5,55,0.00,,,0.02,WUHU216HW,2013-02-11 02:59:00,
2013-02-10 22:00:00,19.8,6.1,30.05,North,0,2.5,2.5,55,0.00,,,0.02,WUHU216HW,2013-02-11 03:00:00,
2013-02-10 22:04:00,19.8,6.1,30.05,North,0,2.5,2.5,55,0.00,,,0.02,WUHU216HW,2013-02-11 03:04:00,
2013-02-10 22:05:00,19.8,6.1,30.05,North,0,2.5,2.5,55,0.00,,,0.02,WUHU216HW,2013-02-11 03:05:00,
2013-02-10 22:06:00,19.8,6.1,30.05,North,0,2.5,2.5,55,0.00,,,0.02,WUHU216HW,2013-02-11 03:06:00,
2013-02-10 22:29:00,20.0,6.3,30.04,North,0,0.7,0.7,55,0.00,,,0.02,WUHU216HW,2013-02-11 03:29:00,
2013-02-10 22:30:00,20.0,6.3,30.04,North,0,0.7,0.7,55,0.00,,,0.02,WUHU216HW,2013-02-11 03:30:00,
2013-02-10 22:35:00,20.0,6.3,30.04,North,0,0.7,0.7,55,0.00,,,0.02,WUHU216HW,2013-02-11 03:35:00,
2013-02-10 22:59:00,20.5,6.8,30.03,North,0,1.6,1.6,55,0.00,,,0.02,WUHU216HW,2013-02-11 03:59:00,
2013-02-10 23:00:00,20.5,6.8,30.03,North,0,1.6,1.6,55,0.00,,,0.02,WUHU216HW,2013-02-11 04:00:00,
2013-02-10 23:04:00,20.5,6.8,30.03,North,0,1.6,1.6,55,0.00,,,0.02,WUHU216HW,2013-02-11 04:04:00,
2013-02-10 23:05:00,20.5,6.8,30.03,North,0,1.6,1.6,55,0.00,,,0.02,WUHU216HW,2013-02-11 04:05:00,
2013-02-10 23:30:00,20.9,7.1,30.02,North,0,0.4,0.4,55,0.00,,,0.02,WUHU216HW,2013-02-11 04:30:00,
2013-02-10 23:35:00,20.9,7.1,30.02,North,0,0.4,0.4,55,0.00,,,0.02,WUHU216HW,2013-02-11 04:35:00,
2013-02-10 23:59:00,21.4,7.7,29.99,North,0,2.0,2.0,55,0.00,,,0.00,WUHU216HW,2013-02-11 04:59:00,